Location: Bogis-Bossey
(46.3500°N, 6.1667°E)
Time: 17:53:55
(UTC+00:00)

ERS-1 Rocket - Pass Details

Date: 17 August 2022
Orbit: 753 x 756 km, 98.4° (Epoch: 01 October)

Event Time Altitude Azimuth Distance (km) Brightness Sun altitude
Exits shadow 20:34:13 31° 124° (SE) 1,313 3.6 -17.4°
Maximum altitude 20:36:14 48° 70° (ENE) 984 3.3 -17.7°
Drops below altitude 10° 20:41:04 10° 357° (N) 2,289 6.1 -18.3°
Sets 20:43:26 0° 352° (N) 3,219 7.1 -18.6°
